Temp
67 70 69 67 52 50 46 55 62 64 61 65 68 67 63 62 62 55 69 72 72 71 74 74 75 76 75 75 75 76 75 76 76 77 77 76 76 76 76 76 76 76 76 76 76 75 75 73 73
64 71 66 59 47 41 45 56 60 64 67 68 71 68 63 59 66 66 67 72 73 73 74 74 73 75 76 75 75 75 76 76 76 76 76 76 76 75 76 76 75 75 76 75 75 74 74 73 73
69 70 57 52 46 43 46 59 64 68 70 66 65 69 64 61 66 67 72 73 74 72 74 73 72 75 74 74 75 75 76 75 76 76 76 76 76 75 76 75 74 75 76 75 75 74 73 73 73
66 62 58 47 46 52 56 60 67 68 70 70 67 61 64 69 69 71 75 74 72 73 73 71 73 74 74 74 74 75 75 76 76 77 76 75 75 75 75 75 74 74 74 74 74 73 73 73 73
63 57 46 43 48 55 61 64 65 65 65 64 67 61 60 67 72 73 74 74 72 71 71 72 72 73 74 74 75 75 76 76 75 76 74 74 74 74 74 73 73 74 73 73 72 72 72 72 72
53 55 42 42 46 57 62 66 70 67 66 66 65 62 58 68 70 70 73 72 72 70 71 71 69 71 72 73 74 74 74 74 74 75 74 74 74 74 73 73 73 73 72 72 71 71 71 72 72
52 47 43 43 48 52 61 69 64 67 62 64 69 57 58 63 69 71 71 70 69 70 70 70 70 70 68 69 70 71 73 73 73 73 73 72 72 72 72 71 72 72 72 71 70 70 70 71 71
56 50 45 46 48 51 60 65 66 65 60 69 70 56 56 64 70 69 67 68 68 69 69 69 69 70 69 69 66 67 69 70 70 69 68 67 68 68 68 68 70 71 71 70 69 69 69 70 69
58 44 42 49 52 56 62 61 64 66 64 65 68 63 67 69 68 66 64 66 66 67 68 68 70 71 68 66 65 65 66 66 66 65 64 64 64 65 66 65 68 70 69 69 68 68 68 66 66
49 42 48 58 59 55 59 58 61 60 60 60 60 65 70 67 67 63 62 62 63 64 66 68 70 70 68 71 65 66 68 68 64 64 63 65 63 64 65 63 64 66 66 67 68 68 65 63 61
50 43 55 59 61 60 59 59 62 57 55 57 59 62 66 65 64 64 64 65 65 67 67 68 71 71 69 68 65 66 68 67 65 62 62 63 63 63 62 61 64 64 63 60 62 61 61 61 60
46 54 56 59 62 59 57 58 58 57 56 64 64 65 64 64 63 63 65 66 67 68 69 69 72 72 69 67 65 65 65 68 67 63 63 62 62 61 60 61 64 62 58 57 57 60 64 60 60
47 49 55 56 58 59 61 55 53 55 59 64 65 65 64 64 64 65 67 67 68 67 68 70 72 72 70 67 65 65 66 68 68 64 63 64 62 61 61 61 61 58 58 58 57 59 62 62 58
48 49 50 55 55 56 55 56 54 56 61 60 63 61 61 63 64 64 65 67 68 67 67 70 72 73 72 68 66 65 67 69 69 65 63 64 64 62 62 61 60 59 64 63 59 57 56 56 56
49 43 47 50 53 54 57 50 49 58 59 58 59 59 61 63 65 64 66 67 68 69 68 69 71 73 72 71 68 66 66 70 67 67 64 64 65 64 62 61 58 59 65 64 62 57 55 54 56
41 41 35 48 50 53 53 41 54 60 56 55 58 59 59 62 64 66 67 68 69 69 68 69 70 72 70 68 68 68 68 66 66 68 64 64 65 65 63 62 62 60 64 63 61 55 53 52 52
38 30 35 42 52 50 47 42 55 60 58 54 55 59 62 60 61 65 68 67 67 69 69 69 68 68 69 69 68 66 66 65 63 64 65 64 64 66 64 65 64 65 64 62 61 54 54 50 50
30 33 37 37 45 47 43 42 50 56 55 53 52 54 59 61 63 64 66 68 68 69 68 69 69 68 67 68 67 63 62 63 63 63 64 64 64 65 67 65 63 64 63 62 60 55 52 51 50
37 35 34 40 46 42 41 41 46 53 53 50 53 54 55 57 62 65 66 68 67 66 66 67 66 67 67 65 65 63 60 62 62 63 63 65 65 64 66 65 64 63 62 62 60 54 53 48 48
36 32 32 40 45 43 40 39 46 50 52 55 53 54 56 57 60 61 63 64 66 64 65 65 66 66 67 68 67 67 60 61 63 62 62 65 64 62 66 65 63 63 62 61 60 55 50 49 51
36 34 34 34 40 40 38 33 38 48 51 55 57 57 58 59 59 59 61 60 64 63 63 64 65 66 67 67 66 64 64 62 61 60 61 62 64 65 62 64 64 63 63 61 61 56 54 47 49
35 40 39 37 31 25 37 20 34 43 47 50 52 54 57 58 60 60 58 59 60 62 64 66 65 65 66 66 65 64 63 63 64 63 63 63 64 65 63 63 64 63 63 62 61 58 56 50 49
37 40 37 36 34 32 29 21 31 41 42 45 49 52 54 55 55 56 59 60 61 62 61 63 64 64 65 64 64 63 62 63 65 64 61 62 62 64 64 64 62 63 63 62 62 59 56 54 51
43 39 35 38 33 15 28 25 27 35 39 40 44 46 49 52 53 54 56 59 58 62 62 62 62 63 64 64 64 63 63 63 62 62 62 61 62 62 62 63 63 63 63 62 62 60 57 54 54
38 31 12 15 18 12 33 26 29 37 40 39 39 41 44 49 50 52 52 53 55 56 60 62 63 62 63 63 63 63 63 63 63 62 63 62 61 61 61 61 62 61 62 63 62 61 58 56 53
34 32 23 14 15 19 31 25 31 39 41 41 41 41 43 44 46 49 51 52 51 52 54 60 62 62 63 63 62 63 63 63 63 64 64 64 63 63 63 61 63 62 62 63 64 61 60 58 56
31 24 35 21 19 18 25 33 36 39 38 38 38 39 39 41 44 46 47 48 48 48 50 52 58 63 64 63 63 63 63 63 63 64 64 64 64 63 62 62 62 62 62 61 63 62 59 58 56
35 38 28 23 10 11 20 24 25 30 33 35 35 36 38 41 42 43 45 45 47 48 49 50 56 62 64 64 64 64 63 63 64 64 63 64 64 64 63 62 62 62 61 61 61 62 61 58 57
33 31 32 32 27 18 11 19 33 32 33 32 33 35 35 37 38 40 43 45 44 46 49 49 51 56 59 62 63 63 63 63 64 64 64 63 63 63 63 63 62 62 60 61 61 62 61 59 57
37 34 34 25 22 24 23 20 35 34 35 34 34 35 35 36 37 37 39 40 42 43 46 47 49 49 51 54 60 63 64 64 63 63 64 64 63 62 61 61 61 61 61 61 60 60 60 60 58
MSLP
1014.89 1014.25 1014.05 1014.08 1015.54 1015.69 1014.81 1013.00 1011.69 1010.72 1009.94 1009.80 1009.82 1010.38 1011.43 1012.35 1013.05 1014.21 1014.00 1014.58 1015.30 1016.01 1016.50 1017.09 1017.47 1017.84 1018.32 1018.92 1019.36 1019.65 1020.05 1020.15 1020.46 1020.75 1020.88 1021.25 1021.45 1021.51 1021.55 1021.59 1021.64 1021.83 1021.98 1022.13 1022.26 1022.40 1022.58 1022.82 1022.84
1015.09 1014.58 1014.19 1014.83 1015.81 1015.92 1014.52 1012.61 1011.78 1010.55 1009.92 1009.68 1009.89 1010.64 1011.71 1012.95 1013.18 1013.78 1014.38 1014.80 1014.99 1015.91 1016.37 1017.18 1017.49 1017.80 1018.36 1018.92 1019.39 1019.71 1020.07 1020.27 1020.61 1020.75 1021.01 1021.35 1021.61 1021.71 1021.70 1021.83 1021.93 1022.11 1022.21 1022.49 1022.66 1022.79 1022.85 1023.04 1023.14
1015.05 1015.01 1015.46 1015.45 1015.64 1015.55 1014.16 1012.45 1011.41 1010.98 1010.23 1009.91 1010.47 1011.02 1012.10 1013.09 1013.34 1013.56 1013.92 1014.69 1015.05 1016.03 1016.46 1017.11 1017.63 1017.85 1018.54 1018.99 1019.27 1019.77 1020.04 1020.41 1020.60 1020.90 1021.15 1021.30 1021.63 1021.84 1021.89 1022.09 1022.22 1022.35 1022.52 1022.76 1022.93 1023.11 1023.18 1023.33 1023.38
1015.25 1015.09 1015.52 1015.48 1015.39 1014.39 1013.19 1012.03 1011.46 1011.06 1010.68 1010.39 1010.63 1012.07 1012.73 1012.95 1013.17 1013.38 1014.07 1014.53 1015.14 1016.06 1016.58 1017.26 1017.75 1018.11 1018.54 1019.19 1019.41 1019.75 1020.11 1020.41 1020.75 1020.88 1021.35 1021.53 1021.78 1022.06 1022.20 1022.32 1022.49 1022.59 1022.87 1023.08 1023.27 1023.43 1023.50 1023.53 1023.48
1015.23 1015.73 1015.92 1015.67 1015.02 1013.70 1012.49 1012.06 1011.13 1010.99 1010.76 1010.75 1010.76 1012.35 1013.23 1013.49 1013.08 1013.50 1014.15 1014.83 1015.14 1016.22 1016.78 1017.34 1017.91 1018.33 1018.62 1019.18 1019.54 1019.95 1020.09 1020.49 1020.86 1021.14 1021.58 1021.74 1021.95 1022.24 1022.42 1022.63 1022.71 1022.95 1023.25 1023.47 1023.58 1023.70 1023.81 1023.86 1023.93
1015.86 1015.67 1016.04 1015.55 1014.84 1013.43 1011.93 1011.15 1010.87 1010.78 1010.96 1011.15 1011.23 1012.33 1013.87 1013.82 1013.64 1013.89 1014.22 1014.97 1015.44 1016.21 1016.95 1017.48 1018.08 1018.61 1018.84 1019.24 1019.65 1020.02 1020.33 1020.70 1021.20 1021.37 1021.80 1022.03 1022.18 1022.39 1022.61 1022.84 1023.02 1023.28 1023.54 1023.76 1023.91 1024.00 1024.14 1024.14 1024.14
1015.87 1015.89 1015.74 1015.24 1014.61 1013.38 1011.72 1010.44 1010.47 1010.27 1010.69 1010.95 1011.43 1012.84 1014.21 1014.28 1014.01 1014.12 1014.47 1015.03 1015.87 1016.40 1017.04 1017.63 1018.18 1018.85 1019.03 1019.41 1019.88 1020.18 1020.46 1020.95 1021.36 1021.75 1021.93 1022.21 1022.41 1022.61 1022.87 1023.13 1023.31 1023.56 1023.87 1024.13 1024.22 1024.30 1024.44 1024.45 1024.54
1015.41 1015.82 1015.43 1015.00 1014.26 1012.95 1011.51 1010.83 1010.11 1010.19 1010.71 1010.74 1011.38 1012.90 1014.06 1014.30 1014.28 1014.53 1015.06 1015.55 1016.11 1016.83 1017.10 1017.71 1018.32 1018.88 1019.37 1019.65 1020.07 1020.46 1020.78 1021.11 1021.38 1021.86 1022.16 1022.45 1022.73 1022.95 1023.18 1023.42 1023.54 1023.83 1024.22 1024.46 1024.56 1024.64 1024.83 1024.84 1024.92
1015.24 1015.71 1015.35 1014.52 1013.87 1012.91 1011.57 1011.35 1010.47 1010.31 1010.74 1011.21 1011.98 1012.63 1012.89 1013.55 1014.28 1014.99 1015.69 1016.31 1016.70 1017.13 1017.47 1017.64 1018.27 1018.73 1019.31 1019.76 1020.21 1020.64 1021.02 1021.34 1021.66 1021.99 1022.33 1022.66 1023.05 1023.29 1023.51 1023.76 1023.89 1024.14 1024.53 1024.71 1024.84 1024.96 1025.15 1025.28 1025.41
1015.59 1015.42 1014.94 1013.90 1013.61 1013.26 1012.27 1012.03 1011.45 1011.11 1011.39 1012.07 1012.87 1013.12 1013.49 1014.09 1014.35 1015.04 1015.84 1016.51 1016.86 1017.24 1017.56 1017.75 1018.07 1018.56 1019.22 1019.63 1020.24 1020.67 1021.15 1021.58 1021.97 1022.22 1022.52 1022.75 1023.16 1023.43 1023.69 1024.03 1024.25 1024.54 1024.84 1025.04 1025.07 1025.19 1025.34 1025.60 1025.87
1015.57 1015.42 1014.80 1013.94 1013.71 1013.69 1012.98 1012.48 1012.32 1011.99 1012.18 1012.64 1013.15 1013.67 1013.93 1014.40 1014.79 1015.05 1015.49 1016.14 1016.71 1017.07 1017.45 1017.71 1017.98 1018.29 1018.95 1019.51 1020.20 1020.65 1021.01 1021.50 1021.99 1022.30 1022.61 1022.97 1023.40 1023.71 1024.01 1024.36 1024.58 1024.87 1025.15 1025.46 1025.54 1025.67 1025.75 1025.92 1026.15
1016.14 1015.45 1015.00 1014.17 1013.75 1013.64 1013.38 1013.24 1012.93 1012.84 1013.17 1012.83 1013.01 1013.41 1014.02 1014.63 1014.89 1015.13 1015.47 1015.57 1015.97 1016.61 1016.99 1017.53 1017.66 1018.15 1018.72 1019.53 1020.10 1020.49 1020.96 1021.21 1021.71 1022.14 1022.58 1023.08 1023.55 1023.95 1024.23 1024.41 1024.64 1025.01 1025.38 1025.65 1025.89 1025.86 1025.87 1026.23 1026.35
1016.57 1016.42 1015.70 1014.99 1014.29 1013.85 1013.47 1013.57 1013.72 1013.28 1013.07 1013.31 1013.53 1013.72 1013.94 1014.32 1014.90 1015.21 1015.35 1015.52 1015.70 1015.97 1016.62 1017.00 1017.18 1017.64 1018.29 1019.15 1019.92 1020.43 1020.73 1020.97 1021.30 1021.89 1022.41 1022.85 1023.29 1023.86 1024.20 1024.53 1024.89 1025.28 1025.45 1025.63 1025.88 1025.85 1026.05 1026.37 1026.77
1017.57 1016.96 1016.15 1015.31 1014.91 1014.54 1014.26 1013.86 1013.84 1013.35 1013.09 1013.28 1013.71 1014.14 1014.15 1014.20 1014.28 1015.04 1015.28 1015.31 1015.42 1015.74 1016.09 1016.54 1016.89 1017.11 1017.72 1018.51 1019.33 1019.99 1020.38 1020.51 1021.05 1021.52 1022.05 1022.55 1022.88 1023.54 1024.08 1024.57 1024.86 1025.20 1025.17 1025.43 1025.90 1026.05 1026.45 1026.75 1027.00
1017.79 1017.48 1016.44 1015.47 1015.01 1014.77 1014.45 1014.36 1013.99 1013.68 1013.64 1013.70 1013.71 1014.10 1013.88 1013.67 1013.81 1014.14 1014.53 1014.89 1015.18 1015.45 1015.87 1016.09 1016.59 1016.81 1017.37 1017.89 1018.73 1019.38 1019.85 1019.93 1020.72 1021.13 1021.66 1022.10 1022.44 1023.11 1023.74 1024.29 1024.69 1024.79 1024.66 1025.21 1025.76 1026.29 1026.67 1027.07 1027.21
1018.40 1018.08 1017.20 1015.52 1014.99 1014.91 1014.95 1014.58 1014.41 1013.77 1013.94 1014.05 1013.64 1013.61 1013.76 1013.48 1013.12 1013.31 1013.80 1014.23 1014.64 1014.99 1015.39 1015.75 1016.09 1016.61 1017.06 1017.51 1018.17 1018.81 1019.34 1019.68 1020.18 1020.63 1021.15 1021.61 1021.95 1022.55 1023.33 1023.92 1024.26 1024.48 1024.55 1025.00 1025.56 1026.43 1027.01 1027.45 1027.62
1019.16 1018.88 1017.96 1016.58 1015.49 1015.31 1015.39 1014.92 1013.74 1013.79 1013.94 1013.92 1013.65 1013.27 1012.99 1013.12 1013.01 1012.91 1013.00 1013.39 1013.86 1014.28 1014.77 1015.33 1015.74 1016.15 1016.73 1017.04 1017.60 1018.39 1018.95 1019.46 1019.96 1020.38 1020.91 1021.24 1021.68 1022.10 1022.69 1023.21 1023.73 1024.07 1024.36 1024.92 1025.42 1026.48 1026.66 1027.51 1027.93
1020.42 1019.83 1018.75 1017.93 1016.90 1016.49 1016.12 1015.75 1014.82 1013.84 1013.82 1013.72 1013.48 1013.18 1012.89 1012.69 1012.63 1012.46 1012.51 1012.70 1013.16 1013.66 1014.33 1014.84 1015.51 1016.00 1016.54 1016.97 1017.37 1018.09 1018.79 1019.19 1019.57 1020.16 1020.55 1020.85 1021.41 1021.77 1022.09 1022.61 1023.17 1023.65 1024.27 1024.75 1025.27 1026.06 1026.69 1027.18 1027.91
1020.63 1020.43 1019.82 1018.70 1017.86 1017.54 1016.88 1016.26 1015.37 1014.23 1013.57 1013.38 1013.11 1012.98 1012.84 1012.77 1012.22 1012.20 1012.12 1012.24 1012.64 1013.34 1013.96 1014.35 1014.97 1015.65 1016.15 1016.74 1017.29 1017.89 1018.48 1018.96 1019.33 1019.54 1019.91 1020.47 1020.95 1021.40 1021.64 1022.20 1022.83 1023.32 1023.91 1024.51 1025.09 1025.93 1026.40 1027.34 1027.70
1020.68 1020.59 1020.09 1019.03 1018.45 1018.26 1017.51 1016.72 1015.49 1014.73 1013.72 1013.29 1013.24 1012.96 1012.71 1012.26 1011.81 1012.17 1012.28 1012.45 1012.70 1012.93 1013.17 1013.99 1014.55 1015.07 1015.52 1016.19 1016.84 1017.25 1017.95 1018.51 1018.90 1019.30 1019.67 1019.98 1020.51 1021.07 1021.28 1021.67 1022.30 1022.91 1023.50 1024.13 1024.73 1025.31 1026.29 1026.84 1027.12
1020.67 1020.73 1020.59 1020.47 1019.50 1018.78 1018.01 1016.74 1015.76 1014.27 1013.71 1013.44 1013.07 1013.06 1012.86 1012.68 1012.46 1012.03 1012.38 1012.71 1012.50 1012.96 1013.45 1013.54 1013.88 1014.42 1014.97 1015.48 1016.61 1017.00 1017.69 1018.27 1018.81 1019.13 1019.50 1019.72 1019.98 1020.34 1020.81 1021.02 1021.62 1022.19 1022.63 1023.28 1023.96 1024.74 1025.22 1025.98 1026.77
1020.63 1020.95 1021.03 1021.08 1020.97 1020.51 1019.69 1019.13 1017.38 1015.54 1014.65 1014.07 1013.62 1013.57 1013.26 1012.93 1012.68 1012.42 1012.49 1012.68 1013.01 1012.88 1012.83 1012.95 1013.52 1014.18 1014.66 1014.99 1015.81 1016.37 1016.66 1017.23 1017.59 1018.20 1018.78 1019.10 1019.49 1019.78 1020.18 1020.40 1020.74 1021.41 1021.91 1022.42 1023.02 1023.74 1024.44 1025.16 1025.92
1021.07 1021.16 1021.36 1021.67 1021.81 1021.65 1020.56 1020.75 1018.47 1016.88 1016.15 1015.81 1015.57 1015.15 1014.60 1014.07 1013.61 1013.12 1012.46 1012.53 1012.43 1012.61 1012.84 1012.95 1013.14 1013.55 1014.15 1014.78 1014.87 1015.78 1015.98 1015.90 1016.92 1017.58 1018.18 1018.67 1019.01 1019.32 1019.68 1019.95 1020.12 1020.38 1021.08 1021.47 1022.14 1022.90 1023.57 1024.06 1024.66
1021.49 1021.48 1021.70 1021.94 1022.42 1022.65 1021.35 1021.13 1019.30 1018.28 1018.06 1017.43 1016.93 1016.51 1016.23 1015.54 1014.73 1014.05 1013.41 1012.78 1012.98 1012.33 1012.05 1012.31 1012.60 1013.01 1013.46 1013.93 1014.55 1015.05 1015.60 1015.57 1016.26 1016.58 1017.35 1017.94 1018.36 1018.94 1019.11 1019.32 1019.72 1019.98 1020.16 1020.73 1021.32 1022.01 1022.68 1023.23 1023.73
1022.14 1022.48 1023.18 1023.63 1023.66 1023.02 1021.62 1021.50 1019.68 1019.45 1019.41 1019.39 1018.99 1018.12 1017.18 1016.60 1016.01 1015.37 1014.59 1013.99 1013.30 1013.14 1012.52 1011.84 1011.94 1012.27 1012.68 1013.23 1013.80 1014.31 1014.64 1015.17 1015.00 1015.76 1016.19 1016.93 1017.61 1017.99 1018.27 1018.67 1019.06 1019.39 1019.56 1019.81 1020.58 1021.33 1021.84 1022.32 1022.79
1023.12 1023.44 1024.07 1024.60 1024.62 1023.35 1021.64 1020.90 1020.35 1020.12 1020.20 1020.13 1019.95 1019.50 1018.61 1017.65 1017.10 1016.32 1015.51 1014.84 1014.40 1013.81 1013.13 1012.43 1011.77 1011.55 1012.06 1012.47 1012.96 1013.54 1014.16 1014.49 1014.86 1015.03 1015.21 1015.60 1016.24 1016.71 1016.99 1017.57 1017.99 1018.41 1018.91 1019.12 1019.44 1020.15 1020.62 1021.21 1021.59
1023.71 1023.87 1023.97 1024.47 1024.64 1024.08 1022.38 1020.68 1020.59 1020.02 1019.87 1020.04 1020.36 1020.30 1019.81 1019.08 1018.04 1017.12 1016.36 1015.77 1015.30 1014.52 1013.75 1012.92 1011.99 1011.00 1010.71 1011.17 1011.85 1012.62 1013.41 1013.82 1014.06 1014.06 1014.76 1014.73 1015.34 1015.94 1016.43 1016.72 1017.34 1017.57 1017.87 1018.18 1018.41 1018.87 1019.27 1019.96 1020.43
1024.27 1024.42 1024.17 1024.50 1025.09 1024.41 1023.00 1022.31 1022.22 1021.87 1022.11 1022.06 1021.74 1021.47 1020.83 1020.04 1019.15 1018.12 1017.13 1016.55 1015.78 1015.09 1014.02 1012.63 1011.24 1010.59 1010.25 1010.27 1010.85 1011.68 1012.40 1013.04 1013.40 1013.74 1013.95 1014.37 1014.33 1014.86 1015.47 1015.88 1016.21 1016.66 1017.09 1017.34 1017.68 1017.75 1018.01 1018.63 1019.01
1024.48 1024.39 1024.40 1024.31 1024.65 1024.80 1024.69 1023.66 1023.78 1023.84 1023.79 1023.28 1022.76 1022.07 1021.72 1021.04 1020.20 1019.20 1018.13 1017.22 1016.53 1015.67 1014.41 1013.40 1011.66 1010.68 1010.71 1010.51 1010.72 1011.43 1012.04 1012.51 1012.99 1013.22 1013.26 1013.39 1013.79 1014.12 1014.52 1014.92 1015.18 1015.59 1016.02 1016.40 1016.83 1016.91 1017.07 1017.33 1017.67
1024.72 1024.75 1024.63 1024.70 1024.54 1024.61 1024.84 1024.34 1024.37 1024.39 1024.19 1023.94 1023.47 1023.03 1022.51 1021.75 1020.77 1019.91 1018.94 1018.01 1017.38 1016.51 1015.38 1013.98 1012.74 1012.09 1011.77 1011.24 1011.10 1011.20 1011.54 1011.96 1012.34 1012.63 1012.88 1012.93 1013.04 1013.54 1013.31 1014.19 1014.37 1014.68 1014.97 1015.35 1015.62 1015.80 1015.97 1016.12 1016.30
Wind_Speed
10 11 3 4 4 4 4 8 3 6 3 0 2 7 8 3 3 3 3 11 20 17 16 16 20 20 21 19 17 18 17 17 17 16 15 16 15 15 14 15 13 15 18 18 17 17 16 14 15
6 7 4 1 4 1 6 6 12 4 5 5 6 4 4 3 3 6 8 17 21 16 16 15 19 21 21 20 19 18 17 17 17 14 17 17 14 13 14 15 13 18 18 18 17 17 17 15 15
6 4 2 4 4 6 6 2 5 4 3 3 4 5 4 3 3 7 11 18 19 16 15 15 17 22 21 20 19 18 18 15 15 13 14 16 16 12 14 15 16 18 19 18 17 16 16 16 14
3 5 4 3 7 8 12 5 2 3 3 5 5 8 4 4 10 7 19 19 18 15 15 16 18 21 21 19 20 18 18 17 16 14 13 14 16 14 13 14 15 18 18 17 16 15 16 16 14
1 1 2 3 7 8 9 4 3 4 1 3 3 6 4 3 7 12 18 16 18 14 14 15 18 20 20 18 18 18 19 17 15 15 15 16 17 14 13 14 17 19 18 17 16 15 16 16 16
2 3 1 8 5 9 9 9 6 2 1 4 3 7 2 4 8 7 13 14 13 16 15 15 15 16 18 18 17 17 15 18 14 14 14 15 15 14 14 16 18 18 18 17 16 15 16 15 14
4 2 5 4 6 7 9 9 8 6 3 1 1 5 2 3 6 7 9 11 15 15 14 13 13 11 13 13 13 13 17 16 14 14 13 12 12 13 13 15 17 18 18 16 16 15 17 17 18
3 3 2 4 7 9 5 5 5 7 3 2 4 5 6 5 7 8 8 13 15 13 14 13 12 11 8 9 11 11 12 13 12 13 11 11 11 12 12 11 15 18 17 16 15 14 15 15 14
2 2 4 5 5 8 7 4 3 4 5 3 4 4 5 12 12 10 10 11 10 10 12 12 13 12 9 8 8 10 12 12 12 13 12 10 5 6 8 9 13 16 16 15 15 13 12 11 14
3 4 5 5 3 4 6 7 3 5 5 6 6 5 13 10 13 11 8 9 8 11 12 11 13 13 10 9 7 7 7 7 5 6 6 5 6 5 8 9 12 12 12 13 14 12 9 7 5
4 4 7 12 4 6 8 6 6 4 4 3 6 9 11 10 10 11 9 10 10 12 10 11 13 13 12 9 6 4 5 5 5 7 5 5 6 6 5 4 5 6 7 3 5 4 3 6 5
4 5 7 10 9 3 4 8 7 4 4 7 8 14 8 9 12 11 11 10 11 12 15 14 13 12 11 7 6 7 6 6 6 6 6 6 5 5 5 4 5 5 4 5 4 2 6 6 6
3 7 9 11 7 5 3 5 3 8 5 6 5 10 11 9 9 11 12 8 9 14 12 14 14 14 11 12 7 7 7 7 8 6 6 6 7 6 6 5 4 4 4 4 4 4 5 6 6
5 5 8 6 8 5 3 5 3 4 8 6 7 8 8 9 11 12 12 13 12 10 13 15 14 14 14 12 13 9 7 8 7 6 6 8 8 7 7 7 6 5 5 5 5 5 5 4 5
5 6 8 6 3 4 4 6 5 8 7 10 7 8 9 11 11 14 15 12 14 11 10 14 12 11 14 14 12 9 7 9 7 8 7 9 9 9 9 7 4 5 4 8 6 4 4 5 4
2 1 4 6 4 6 7 8 6 10 7 11 13 10 9 10 14 12 14 12 16 13 14 12 8 12 13 12 10 9 9 6 7 9 7 8 8 11 9 7 7 5 4 5 6 5 4 4 4
4 2 3 7 4 2 6 3 11 11 9 12 11 15 13 9 8 10 13 12 14 15 15 14 11 8 10 11 10 8 9 7 6 7 7 7 7 10 10 8 8 8 5 4 6 3 6 4 4
4 5 5 6 7 9 7 7 10 12 5 8 8 8 11 9 14 12 14 13 12 16 15 14 11 10 7 6 7 5 5 6 6 7 8 9 6 7 8 7 8 7 6 5 5 6 3 4 5
4 4 8 11 12 7 4 8 9 13 10 9 10 7 7 8 7 10 12 14 13 11 15 16 14 12 9 5 8 7 5 5 6 7 10 10 8 7 8 7 9 8 9 8 7 4 8 2 4
2 3 6 9 7 8 8 14 16 14 18 15 8 8 8 7 6 4 9 11 13 15 18 15 15 15 12 8 6 6 5 3 6 6 6 9 9 7 8 10 10 10 8 10 9 6 4 3 8
4 4 3 5 8 4 9 7 3 5 13 16 15 6 6 6 8 6 7 7 12 12 13 16 17 16 14 14 6 4 4 3 4 5 6 8 11 12 8 11 11 11 10 10 10 9 12 4 7
5 6 6 7 8 4 7 6 9 9 6 2 8 8 11 8 7 8 5 6 7 11 12 16 16 15 15 16 13 12 11 11 9 8 7 9 11 13 11 12 13 12 10 11 11 9 10 6 9
2 3 3 4 5 6 2 5 10 5 9 10 11 9 10 10 9 10 10 8 10 10 10 11 15 16 16 16 16 13 12 10 9 7 9 10 10 12 13 13 13 14 10 12 13 12 12 10 8
6 5 5 1 2 2 4 5 7 4 5 5 13 14 14 13 10 10 10 11 3 9 12 12 14 17 17 17 18 18 19 13 10 10 10 9 9 9 11 13 12 12 13 13 12 12 14 12 9
5 3 4 5 3 6 2 3 6 6 9 10 12 16 18 15 14 13 11 11 10 6 10 13 16 18 18 18 18 18 18 17 17 13 11 12 9 9 12 12 13 11 12 14 12 13 13 14 13
4 2 1 3 3 5 6 4 4 3 5 9 11 11 13 17 16 15 16 10 11 12 10 9 15 17 17 19 19 18 17 11 12 13 11 11 11 12 15 13 14 15 14 14 15 12 12 14 14
4 2 3 0 1 2 4 5 4 16 18 20 20 17 17 16 17 15 15 14 13 12 14 11 13 18 19 20 18 17 16 16 15 16 12 11 12 11 13 15 15 16 16 17 17 13 14 14 14
2 5 1 2 3 5 5 4 5 20 20 21 19 17 17 17 16 16 14 14 13 12 10 15 14 17 18 19 17 15 16 16 14 12 13 14 13 14 13 15 16 16 17 17 17 15 16 15 13
1 1 3 3 2 2 3 5 5 9 12 15 18 16 14 15 15 15 14 15 14 13 11 12 11 2 6 12 13 13 13 15 13 13 11 11 8 12 13 15 17 17 17 17 16 18 17 17 16
3 4 3 2 3 3 3 4 3 10 11 11 12 11 13 12 13 12 14 15 16 14 12 9 11 11 9 6 3 11 12 13 13 14 14 12 15 12 11 13 14 16 17 16 17 19 17 19 18
Wind_Direction
323 314 292 25 44 74 258 261 264 279 64 120 63 78 118 47 81 185 159 132 131 139 143 144 144 137 133 136 136 132 130 127 122 118 120 114 117 120 121 115 112 112 103 97 93 94 99 94 99
319 313 24 77 109 320 270 259 278 251 149 92 59 50 70 104 98 130 107 142 136 140 144 146 146 138 138 142 140 137 136 129 127 134 126 121 122 122 117 104 112 104 104 97 98 95 99 99 101
308 177 69 150 174 192 238 42 23 348 22 113 93 70 79 87 89 143 125 136 133 139 144 144 147 139 142 144 141 139 137 131 131 125 122 129 123 124 115 106 106 111 102 102 95 93 94 94 96
332 360 344 133 226 242 236 291 352 98 324 354 103 84 57 320 145 154 135 134 130 143 142 144 147 141 144 147 143 141 142 139 136 131 118 129 122 115 104 103 115 109 105 103 99 95 93 80 87
51 24 208 203 238 261 260 226 127 320 296 233 116 156 81 22 127 120 134 137 135 135 140 142 145 146 147 149 147 147 146 142 130 133 116 124 122 119 111 111 117 110 108 104 100 96 92 83 85
309 136 168 219 249 248 270 247 193 184 333 355 123 108 128 137 124 140 127 140 127 136 144 144 141 150 149 150 151 155 142 126 140 129 126 127 124 126 121 122 120 115 110 105 101 97 91 78 84
180 89 219 212 224 270 249 284 178 165 50 292 178 71 163 129 155 137 128 117 132 137 140 142 145 151 146 146 148 145 136 136 133 130 137 132 132 127 121 126 126 118 112 107 102 97 91 82 81
162 126 216 223 233 268 264 294 136 99 132 279 115 148 164 205 153 92 84 122 130 138 142 146 149 147 150 147 141 141 135 139 142 133 123 118 112 111 117 127 125 120 116 110 103 96 93 85 82
19 133 221 218 226 258 344 287 10 162 97 60 53 140 152 152 115 97 91 116 121 138 148 145 152 154 147 139 149 139 144 132 125 125 128 118 120 118 117 124 120 126 117 116 110 101 93 80 82
159 177 219 255 256 303 313 32 323 99 64 23 58 42 134 128 132 133 130 137 142 148 153 155 157 158 152 153 144 140 137 135 131 137 148 137 131 127 118 117 119 118 119 123 123 117 83 68 71
271 189 229 273 332 357 324 344 323 68 92 144 144 148 152 139 141 149 158 157 160 162 158 164 166 160 156 155 145 152 150 149 147 157 157 124 121 121 118 118 115 118 120 107 119 105 72 85 91
278 310 264 274 295 274 299 324 338 47 40 146 145 155 150 155 164 166 180 172 166 165 161 169 172 163 156 149 152 156 161 159 161 176 156 134 132 135 133 126 132 128 140 153 138 140 109 86 82
11 347 341 338 353 344 2 309 290 309 312 94 56 156 173 174 166 176 181 185 165 165 165 173 172 168 155 157 156 164 175 173 170 174 160 154 141 146 140 143 146 162 166 149 153 131 104 102 88
318 321 304 319 317 303 332 294 10 294 322 319 166 203 190 183 185 174 188 192 191 169 174 176 180 174 164 164 167 171 188 170 170 177 162 171 149 151 152 160 173 184 191 148 147 128 122 110 107
323 326 330 282 251 263 27 284 244 267 296 287 270 227 225 193 181 180 189 190 192 194 169 175 180 171 172 165 169 170 183 169 168 179 167 174 156 159 157 167 172 187 171 134 132 114 109 107 106
278 315 330 293 213 234 165 247 289 262 246 260 273 261 217 226 191 188 181 186 187 187 185 178 165 185 167 167 162 174 185 177 172 177 174 171 167 159 162 168 178 184 161 142 138 136 120 124 124
11 311 249 314 66 354 162 258 264 253 249 243 255 251 249 222 215 195 185 182 177 186 185 189 171 167 178 173 165 165 177 175 165 166 177 176 173 166 163 170 172 170 147 152 141 145 143 142 132
348 337 338 304 4 360 321 274 291 294 282 265 263 267 254 221 211 198 195 189 175 182 185 186 184 173 159 167 163 145 152 168 159 169 182 181 176 185 171 156 154 156 157 167 151 157 152 146 152
23 333 314 305 302 335 318 275 278 292 301 290 288 297 251 237 228 216 208 197 184 170 173 187 181 186 167 158 178 170 170 171 177 179 177 181 186 185 170 159 159 162 168 177 172 152 159 131 134
330 325 305 295 344 332 302 282 265 261 265 269 272 293 310 302 297 168 210 194 185 179 184 180 190 188 186 179 180 185 157 173 176 183 181 185 183 174 185 168 170 171 169 177 181 162 148 132 177
347 321 336 315 330 302 346 305 353 280 248 256 265 270 269 274 292 298 191 213 191 183 187 185 188 187 191 184 173 134 129 116 171 187 188 191 189 198 181 176 174 179 179 185 190 182 176 157 200
313 13 9 346 3 304 57 291 331 326 344 280 277 268 272 275 280 287 158 197 212 211 191 190 185 187 194 187 187 186 187 196 201 195 192 195 196 200 192 183 178 183 187 186 194 182 189 152 189
324 334 284 291 286 341 302 68 273 309 17 7 20 2 354 331 317 294 291 197 206 212 205 199 195 189 190 193 194 203 200 195 194 190 183 194 196 203 204 197 186 186 190 190 193 187 193 194 180
333 316 330 259 84 359 245 127 282 29 11 11 4 5 2 352 347 347 344 335 258 233 203 200 184 194 192 190 197 201 213 198 195 186 193 198 200 198 202 202 201 197 195 192 195 196 199 198 203
30 16 355 2 2 212 84 97 260 51 34 29 2 351 345 352 355 346 344 345 333 327 251 208 194 193 193 194 197 201 203 210 202 198 199 191 195 203 205 200 203 205 204 197 195 205 203 202 206
333 357 112 303 334 278 319 227 160 23 39 32 10 349 349 345 343 340 337 348 346 346 347 274 213 196 193 196 200 203 210 207 212 210 206 200 201 204 207 199 206 209 205 208 204 202 211 208 213
313 335 339 167 346 14 265 294 209 360 1 0 1 353 339 335 331 334 344 339 337 336 323 308 265 215 196 195 199 199 204 209 209 209 214 202 197 206 202 208 211 215 210 207 209 212 212 212 215
340 339 313 21 30 318 307 317 318 351 339 334 339 339 336 328 326 334 339 337 331 324 322 319 277 216 206 198 196 201 204 207 211 212 210 210 205 204 203 207 211 212 214 214 214 217 217 210 214
341 341 255 263 187 195 297 289 12 328 337 333 338 333 333 330 333 331 337 342 334 325 339 329 355 321 232 203 195 198 202 210 216 219 209 206 209 213 213 213 211 211 213 215 218 225 225 221 221
310 23 301 228 298 218 178 271 340 351 341 343 334 335 339 345 339 345 349 347 340 333 332 357 23 30 24 9 215 200 200 206 209 213 221 211 216 214 213 215 216 216 215 217 219 223 225 227 225